ASTRA 2A

Last updated on Mon Oct 14 2024 00:02:37 GMT+0000 (Coordinated Universal Time)

1 25462U 98050A 24287.48943674 .00000071 00000+0 00000+0 0 9995 2 25462 5.5425 76.0704 0003052 123.9891 55.9064 1.00269499 40204
UTC large
Height (km)
Speed (km/s)
/
Latitude / Longitude
Inclination (degrees)
Orbital Period (minutes)
Azimuth
Elevation
Range (km)
Doppler Factor

Next 0 passes for location: London (51.5072 / 0.1276)

Sorry there are no passes over London.